Regional Weather Roundup
Issued by NWS

Home | Current Version | Previous Version | Text Only | Print | Product List | Glossary On
Versions: 1 2 3 4 5 6 7 8 9 10 11 12 13 14 15 16 17 18 19 20 21 22 23 24 25 26 27 28 29 30 31 32 33 34 35 36 37 38 39 40 41 42 43 44 45 46 47 48 49 50
000
ASUS45 KABQ 050210
RWRNM
NEW MEXICO REGIONAL WEATHER ROUNDUP
NATIONAL WEATHER SERVICE ALBUQUERQUE NM
800 PM MDT WED MAY 04 2016

NOTE: "FAIR" MEANS FEW OR NO CLOUDS BELOW 12,000 FEET AGL WITH NO
       SIGNIFICANT WEATHER OR OBSTRUCTIONS TO VISION.

      THIS PRODUCT IS RELEASED AS TWO VERSIONS.  ONE VERSION NEAR
      THE TOP OF THE HOUR CONTAINING PRELIMINARY DATA FROM ALBUQUERQUE
      AND OTHER STATIONS.  A FINAL VERSION WITH ADDITIONAL DATA IS
      ISSUED ABOUT 10 MINUTES AFTER THE HOUR.

NMZ501-503-504-510>518-050300-
NORTHWEST PLATEAU/NORTHCENTRAL MOUNTAINS

CITY           SKY/WX    TMP DP  RH WIND       PRES   REMARKS
FARMINGTON     FAIR      73  18  12 S6        30.10F
LOS ALAMOS     FAIR      64 -26   2 S6        30.27S
SANTA FE       FAIR      66  18  15 S3        30.20S
TAOS           FAIR      61  25  25 S7        30.25S
ANGEL FIRE     FAIR      47  26  43 W3        30.33R

$$
NMZ402-403-502-505>509-050300-
WESTCENTRAL MOUNTAINS/SOUTHWEST MOUNTAINS

CITY           SKY/WX    TMP DP  RH WIND       PRES   REMARKS
GALLUP         FAIR      68  30  24 SE6       30.15F
GRANTS         FAIR      65  25  22 SE10      30.21S
SILVER CITY      N/A     72  23  16 SE9       30.17R

$$
NMZ407-409-411-412-050300-
SOUTHERN DESERTS

CITY           SKY/WX    TMP DP  RH WIND       PRES   REMARKS
LORDSBURG      FAIR      77  27  15 E13       30.04S
DEMING         FAIR      77  23  13 E7        30.08S
LAS CRUCES     FAIR      74  19  12 SE5       30.12R
HOLLOMAN AFB   FAIR      77  19  11 W3        30.08R
ALAMOGORDO     FAIR      75  16  10 W5        30.11R
T OR C         FAIR      76  23  14 S6        30.11R

$$
NMZ519>523-050300-
CENTRAL VALLEYS/CENTRAL HIGHLANDS

CITY           SKY/WX    TMP DP  RH WIND       PRES   REMARKS
ALBUQUERQUE    FAIR      74  22  14 S7        30.15S
DOUBLE EAGLE   CLEAR     66  25  20 S6        30.19S
MORIARTY ARPT  FAIR      64  14  14 SE6       30.23R
CLINES CORNERS FAIR      58  20  22 S7        30.26R
BELEN          FAIR      73  16  11 SE3       30.14S
SOCORRO        FAIR      71  19  14 S5        30.13R

$$
NMZ524>526-539-540-050300-
SOUTHCENTRAL MOUNTAINS

CITY           SKY/WX    TMP DP  RH WIND       PRES   REMARKS
RUIDOSO          N/A     61  19  20 SE8       30.29R

$$
NMZ527>531-050300-
NORTHEAST HIGHLANDS/NORTHEAST PLAINS

CITY           SKY/WX    TMP DP  RH WIND       PRES   REMARKS
LAS VEGAS      FAIR      57  25  29 S12       30.25R
RATON          FAIR      60  26  27 S9        30.19S
CLAYTON        FAIR      60  40  47 SE9       30.15S

$$
NMZ532>537-050300-
EASTCENTRAL PLAINS

CITY           SKY/WX    TMP DP  RH WIND       PRES   REMARKS
TUCUMCARI      FAIR      67  32  27 SE7       30.11R
CANNON AFB     CLEAR     66  32  27 E6        30.14S
CLOVIS AIRPORT FAIR      66  36  32 E6        30.16S

$$
NMZ028-029-538-050300-
SOUTHEAST PLAINS

CITY           SKY/WX    TMP DP  RH WIND       PRES   REMARKS
ROSWELL        FAIR      69  25  19 S5        30.11R
ARTESIA        FAIR      75  27  16 CALM      30.11S
CARLSBAD       FAIR      72  27  18 CALM      30.09S
HOBBS            N/A     72  25  17 E6        30.12S


$$




USA.gov is the U.S. government's official web portal to all federal, state and local government web resources and services.